2023-041E (55985 NORAD) Tracking and Keplerian Element Data

This shows tracking and keplerian element data for the satellite.

Feedback or suggestion? Click here.




ElementValue
Catalog55985
Name2023-041E
Epoch Orbit23
Epoch Day84.91651573
Epoch Year2023
RAAN245.2441
Inclination42.0176
Eccentricity0.0176154
Argument of Perigee270.7876
Mean Anonmoly87.3182
Mean Motion15.92606042
Decay Rate0.02502689
L11 55985U 23041E 23084.91651573 .02502689 75019-5 13931-2 0 9994
L22 55985 42.0176 245.2441 0176154 270.7876 87.3182 15.92606042 236



Live tracking and technical data element details for 2023-041E (NORAD 55985). 2023-041E can be tracked NOW for your location showing map with azimuth and elevation plus other details from your city location.







IsCatalogInMostPopularTable: catalog: 55985, numindb: 31
Update: records affected: 1



GetName: 55985 2023-041E

Hit Count: updated at: Tue, 06 Jun 2023 03:51:29 GMT